Temp
84 82 80 80 80 80 80 80 80 80 79 80 80 80 79 79 79 79 79 79 79 80 80 80 80 79 79 80 78 78 78 77 77 77 77 77 78 78 78 77 77 80 78
84 83 79 80 80 80 80 80 79 79 79 79 80 80 80 79 79 79 79 79 80 80 80 80 80 79 80 79 78 78 77 76 76 75 75 75 75 77 78 77 78 79 78
83 84 82 79 79 79 79 79 79 79 79 79 80 80 79 79 79 79 79 79 80 80 80 80 79 79 79 78 77 77 76 75 75 75 76 82 80 77 77 77 77 77 77
85 85 82 79 79 78 78 78 78 79 79 79 79 79 79 79 79 79 79 79 79 80 80 80 79 79 78 77 77 77 76 75 74 75 83 86 83 77 77 77 76 77 76
85 87 83 79 79 78 78 78 78 78 79 79 79 79 79 78 79 79 79 79 79 78 77 78 78 77 77 76 77 76 75 74 74 76 84 84 83 78 77 76 76 76 76
81 86 78 78 78 78 78 78 78 79 79 78 78 79 79 79 79 79 79 78 78 77 77 77 77 76 76 76 76 75 74 74 72 84 83 81 81 76 76 76 76 76 76
79 80 86 78 78 78 77 77 77 78 78 78 78 79 79 79 79 79 77 77 77 76 76 77 77 76 75 76 76 76 74 73 78 83 83 82 78 76 76 76 76 75 75
75 78 84 78 77 78 77 77 77 77 78 78 78 78 78 78 77 78 77 77 77 77 76 76 76 76 76 76 76 75 73 71 78 83 82 82 75 77 76 76 75 75 75
79 78 79 80 81 75 76 76 76 77 77 77 77 77 77 76 76 77 76 76 76 77 76 76 76 76 75 75 75 74 71 71 76 83 83 82 74 77 76 75 75 75 75
79 78 79 78 78 82 86 74 74 75 75 76 75 74 74 73 74 75 75 74 75 75 75 75 75 75 75 75 74 72 70 70 78 82 82 78 75 77 76 75 75 75 74
78 79 79 78 80 79 81 81 74 73 73 73 73 71 73 80 83 81 77 74 74 74 75 75 74 74 73 72 72 71 69 78 82 82 83 73 75 77 76 75 75 75 74
76 77 78 78 77 79 80 79 83 84 83 82 83 83 82 83 85 83 77 72 73 73 73 74 74 73 72 79 76 70 76 81 84 83 82 73 74 76 76 75 74 74 74
77 77 77 77 77 78 76 75 76 81 81 84 85 85 84 85 80 83 84 80 77 71 76 76 76 77 78 81 81 80 79 81 83 83 78 72 74 76 77 75 74 74 74
74 75 76 77 76 77 76 74 73 74 78 78 79 80 83 82 82 80 82 83 78 78 76 76 75 79 80 80 83 83 83 83 83 83 78 70 72 74 76 76 75 74 74
74 75 76 77 76 76 77 74 74 73 76 79 80 81 83 80 80 79 82 81 79 78 77 75 75 74 80 81 81 83 83 83 83 83 82 67 69 72 74 76 76 75 75
74 75 77 77 77 77 76 77 74 74 77 78 79 78 76 72 72 73 76 76 76 77 77 77 77 76 75 78 80 80 82 83 83 83 82 75 67 69 71 74 75 77 76
74 75 76 77 77 77 76 77 78 74 72 76 78 77 75 71 71 74 74 75 76 77 76 76 75 73 71 70 71 75 79 82 82 81 81 81 75 66 68 72 74 75 75
73 73 75 76 77 76 77 78 78 74 73 75 77 77 73 74 74 71 71 75 75 75 76 75 73 67 68 66 65 67 71 75 79 81 81 81 80 80 68 69 71 73 74
71 71 72 73 73 74 75 77 79 75 74 75 76 73 73 69 70 69 67 70 73 74 75 74 72 72 70 69 70 73 75 75 74 76 77 79 80 79 79 69 67 68 70
69 69 70 71 71 72 73 74 75 68 70 73 77 76 75 71 71 70 67 66 69 72 74 71 71 71 69 69 67 67 71 73 73 74 76 78 80 79 79 77 73 70 66
68 67 67 67 69 70 70 69 70 64 64 67 75 77 75 75 75 73 70 71 71 71 71 72 70 67 66 68 65 64 67 70 71 71 72 75 76 78 79 78 77 77 74
63 66 66 67 68 70 69 70 69 65 64 65 66 69 74 74 73 72 71 69 72 69 69 69 67 66 66 65 62 62 59 63 65 70 71 72 72 74 75 76 76 76 75
57 60 63 66 68 69 70 68 67 66 64 63 66 69 70 72 72 72 72 70 68 69 67 67 66 64 62 67 66 65 59 59 67 73 70 72 72 71 72 73 74 75 76
53 57 60 65 68 69 69 66 65 61 62 66 67 68 69 70 70 69 71 71 69 68 66 67 68 67 66 64 66 68 69 66 62 62 72 72 73 73 74 74 75 75 75
51 52 55 62 65 67 67 67 64 62 62 62 64 64 66 67 68 67 67 68 68 67 67 67 66 67 66 65 65 65 65 65 63 58 58 65 68 71 72 76 77 75 75
50 51 53 54 55 60 62 59 56 56 54 54 56 59 58 58 57 58 60 61 65 65 64 65 66 66 66 65 65 65 63 59 58 58 56 60 62 68 67 70 71 72 73
MSLP
1010.74 1011.11 1011.54 1011.74 1012.01 1012.27 1012.34 1012.43 1012.47 1012.64 1012.87 1012.95 1013.18 1013.42 1013.68 1013.86 1013.94 1014.08 1014.23 1014.39 1014.52 1014.51 1014.58 1014.65 1014.75 1014.86 1015.01 1015.01 1015.19 1015.37 1015.31 1015.32 1015.38 1015.35 1015.43 1015.46 1015.45 1015.49 1015.59 1015.64 1015.52 1015.61 1015.89
1011.27 1011.16 1011.63 1011.93 1012.14 1012.35 1012.56 1012.67 1012.74 1012.90 1012.98 1013.17 1013.28 1013.54 1013.77 1013.96 1014.09 1014.25 1014.37 1014.46 1014.54 1014.64 1014.72 1014.82 1014.86 1015.00 1015.07 1015.20 1015.41 1015.51 1015.71 1015.74 1015.71 1015.67 1015.71 1015.82 1015.90 1015.85 1015.90 1015.97 1015.83 1016.08 1016.19
1011.25 1011.19 1011.68 1012.02 1012.18 1012.43 1012.60 1012.77 1012.85 1013.00 1013.15 1013.22 1013.43 1013.60 1013.81 1014.08 1014.26 1014.40 1014.51 1014.59 1014.66 1014.71 1014.75 1014.92 1015.03 1015.14 1015.21 1015.48 1015.73 1015.73 1015.90 1016.04 1016.01 1015.92 1015.71 1015.35 1016.02 1016.27 1016.31 1016.33 1016.41 1016.47 1016.50
1011.25 1011.16 1011.71 1011.97 1012.35 1012.58 1012.66 1012.72 1013.01 1013.14 1013.28 1013.40 1013.59 1013.73 1013.93 1014.06 1014.27 1014.44 1014.57 1014.67 1014.74 1014.75 1014.83 1014.96 1015.22 1015.40 1015.47 1015.80 1015.96 1015.99 1016.13 1016.19 1016.18 1015.94 1015.36 1015.24 1015.82 1016.57 1016.64 1016.69 1016.73 1016.77 1016.82
1011.21 1011.05 1011.72 1012.09 1012.44 1012.79 1013.02 1013.09 1013.18 1013.25 1013.39 1013.52 1013.65 1013.81 1013.96 1014.00 1014.25 1014.49 1014.59 1014.69 1014.78 1014.93 1015.05 1015.22 1015.37 1015.62 1015.89 1016.04 1016.13 1016.33 1016.39 1016.35 1016.29 1016.04 1015.53 1015.66 1015.86 1016.71 1016.81 1016.91 1017.01 1016.99 1017.00
1011.85 1011.23 1011.93 1012.19 1012.55 1012.81 1013.09 1013.17 1013.23 1013.43 1013.51 1013.70 1013.86 1013.89 1013.95 1014.06 1014.23 1014.44 1014.60 1014.69 1014.87 1015.01 1015.10 1015.23 1015.47 1015.75 1016.00 1016.23 1016.32 1016.49 1016.67 1016.59 1016.34 1015.64 1015.76 1016.18 1016.18 1016.96 1017.07 1017.08 1017.15 1017.28 1017.30
1012.51 1012.12 1011.50 1012.24 1012.63 1012.94 1013.14 1013.32 1013.46 1013.50 1013.58 1013.74 1013.86 1013.96 1014.02 1014.16 1014.20 1014.34 1014.63 1014.76 1014.83 1014.99 1015.09 1015.30 1015.59 1015.79 1016.00 1016.21 1016.43 1016.57 1016.76 1016.83 1016.42 1015.84 1015.84 1016.02 1016.60 1017.07 1017.18 1017.24 1017.27 1017.34 1017.42
1013.19 1012.57 1011.81 1012.30 1012.71 1012.93 1013.11 1013.27 1013.47 1013.63 1013.72 1013.82 1013.94 1014.04 1014.05 1014.25 1014.30 1014.45 1014.49 1014.70 1014.85 1014.96 1015.13 1015.23 1015.54 1015.87 1016.06 1016.12 1016.29 1016.55 1016.77 1016.91 1016.42 1016.04 1016.03 1016.03 1016.83 1016.96 1017.17 1017.39 1017.49 1017.52 1017.55
1013.19 1012.99 1012.66 1012.41 1012.36 1012.87 1013.06 1013.23 1013.40 1013.51 1013.62 1013.76 1013.91 1014.04 1014.08 1014.22 1014.33 1014.43 1014.47 1014.60 1014.78 1014.89 1015.06 1015.24 1015.43 1015.77 1016.08 1016.17 1016.24 1016.50 1016.75 1016.76 1016.64 1015.96 1016.09 1016.24 1017.04 1017.04 1017.18 1017.36 1017.52 1017.64 1017.73
1013.43 1013.36 1013.05 1012.88 1012.80 1012.37 1012.10 1012.92 1013.26 1013.46 1013.55 1013.66 1013.76 1013.93 1014.15 1014.18 1014.20 1014.33 1014.42 1014.55 1014.62 1014.77 1014.96 1015.14 1015.32 1015.81 1016.07 1016.23 1016.32 1016.49 1016.73 1016.83 1016.34 1015.93 1016.18 1016.44 1016.94 1017.15 1017.32 1017.43 1017.48 1017.60 1017.77
1013.34 1013.41 1013.40 1013.27 1012.87 1012.75 1012.48 1012.22 1012.91 1013.24 1013.44 1013.62 1013.65 1013.76 1013.93 1013.82 1013.43 1013.65 1013.83 1014.02 1014.35 1014.55 1014.77 1015.07 1015.32 1015.77 1016.08 1016.30 1016.50 1016.55 1016.75 1016.30 1015.88 1015.80 1015.79 1016.52 1017.01 1017.21 1017.44 1017.58 1017.66 1017.71 1017.79
1013.25 1013.36 1013.47 1013.39 1013.26 1012.93 1012.71 1012.56 1012.27 1012.29 1012.65 1012.80 1012.88 1012.95 1013.10 1013.01 1012.81 1012.72 1012.87 1013.54 1014.06 1014.40 1014.67 1015.04 1015.31 1015.66 1016.03 1015.79 1016.22 1016.59 1016.31 1015.69 1015.22 1015.47 1015.63 1016.32 1016.78 1017.01 1017.31 1017.62 1017.74 1017.80 1017.91
1013.04 1013.25 1013.35 1013.40 1013.25 1012.95 1013.04 1012.90 1012.64 1012.31 1012.21 1012.12 1011.99 1012.17 1012.38 1012.31 1012.52 1012.57 1012.74 1013.45 1013.82 1014.28 1014.52 1014.91 1015.27 1015.38 1015.39 1015.14 1015.14 1015.55 1015.69 1015.35 1014.99 1015.22 1015.61 1016.24 1016.69 1016.79 1016.87 1017.27 1017.56 1017.71 1017.81
1012.99 1013.08 1013.19 1013.21 1013.15 1012.96 1012.82 1012.89 1012.77 1012.69 1012.54 1012.51 1012.47 1012.17 1011.89 1012.14 1012.25 1012.44 1012.46 1012.47 1013.20 1013.76 1014.10 1014.29 1014.64 1014.59 1014.64 1014.91 1014.53 1014.64 1014.76 1014.84 1014.83 1014.88 1015.34 1015.94 1016.50 1016.75 1016.70 1016.74 1016.99 1017.31 1017.54
1012.75 1012.62 1012.63 1012.81 1012.75 1012.73 1012.47 1012.53 1012.52 1012.41 1012.34 1012.18 1012.09 1012.04 1011.66 1012.03 1012.29 1012.39 1012.36 1012.34 1012.85 1013.19 1013.56 1013.95 1014.12 1014.23 1013.83 1014.06 1014.29 1014.29 1014.35 1014.47 1014.70 1014.77 1014.92 1015.70 1016.04 1016.43 1016.61 1016.63 1016.72 1016.82 1016.94
1012.38 1012.21 1012.13 1012.12 1012.18 1012.21 1012.12 1011.94 1012.07 1012.05 1011.85 1011.78 1011.97 1012.14 1012.15 1012.24 1012.37 1012.65 1012.66 1012.78 1012.91 1013.08 1013.23 1013.35 1013.55 1013.83 1013.91 1013.92 1014.22 1014.49 1014.29 1014.20 1014.29 1014.42 1014.65 1015.33 1015.71 1016.01 1016.23 1016.39 1016.42 1016.39 1016.57
1012.15 1011.99 1011.82 1011.71 1011.77 1011.77 1011.59 1011.53 1011.37 1011.50 1011.63 1011.44 1011.45 1011.80 1012.15 1012.36 1012.31 1012.23 1012.49 1012.73 1012.59 1012.76 1012.91 1013.20 1013.29 1013.59 1013.98 1014.39 1014.62 1014.35 1014.05 1014.02 1014.14 1014.28 1014.30 1014.48 1015.08 1015.59 1015.74 1015.83 1015.93 1016.03 1016.09
1011.98 1011.77 1011.61 1011.53 1011.38 1011.38 1011.23 1011.04 1010.85 1011.14 1011.18 1010.91 1011.03 1011.28 1011.69 1011.94 1012.09 1012.08 1012.27 1012.54 1012.37 1012.47 1012.55 1013.04 1013.48 1013.79 1013.87 1014.42 1014.48 1014.35 1014.14 1014.06 1013.92 1013.68 1013.85 1014.09 1014.27 1014.33 1015.02 1015.24 1015.28 1015.48 1015.69
1012.26 1011.81 1011.43 1011.35 1011.27 1011.02 1011.04 1010.81 1010.35 1010.62 1010.85 1010.28 1010.56 1011.12 1011.49 1011.86 1011.95 1012.10 1012.52 1012.47 1012.44 1012.42 1012.63 1012.80 1013.07 1013.32 1013.53 1013.91 1013.88 1014.06 1013.92 1013.96 1014.01 1013.87 1013.41 1013.43 1013.66 1013.73 1013.85 1014.28 1014.62 1014.85 1014.98
1012.28 1012.02 1011.59 1011.33 1011.01 1010.92 1010.71 1010.59 1010.31 1010.48 1010.69 1010.26 1009.92 1010.16 1010.80 1011.46 1011.63 1012.08 1012.35 1012.33 1012.88 1012.55 1012.69 1013.00 1013.07 1013.19 1013.32 1013.52 1013.76 1013.76 1013.69 1013.67 1013.66 1013.45 1013.33 1013.05 1012.90 1013.03 1013.19 1013.51 1013.92 1014.12 1014.39
1012.08 1011.80 1011.41 1011.20 1010.94 1010.73 1010.54 1010.50 1010.06 1010.45 1010.79 1010.48 1009.70 1009.64 1010.04 1010.61 1011.04 1011.54 1011.70 1011.82 1012.35 1012.67 1012.74 1012.89 1012.79 1012.96 1013.10 1013.23 1013.47 1013.52 1013.41 1013.35 1013.28 1013.02 1012.78 1012.66 1012.53 1012.25 1012.38 1012.75 1012.87 1012.97 1013.20
1012.80 1011.65 1011.24 1010.83 1010.54 1010.32 1010.35 1010.09 1009.93 1010.40 1010.52 1010.37 1010.20 1010.16 1009.89 1010.16 1010.72 1011.07 1011.34 1011.70 1011.71 1012.33 1012.30 1012.60 1012.67 1012.83 1012.90 1013.14 1013.06 1013.19 1012.97 1012.88 1012.65 1012.15 1012.32 1012.33 1012.20 1012.00 1011.95 1012.20 1012.29 1012.09 1011.97
1013.59 1012.76 1011.81 1010.58 1010.15 1009.95 1009.93 1009.97 1010.07 1010.02 1010.10 1010.23 1009.74 1009.59 1009.72 1009.91 1010.15 1010.44 1010.90 1011.25 1011.54 1011.99 1012.09 1012.27 1012.10 1012.28 1012.54 1012.47 1012.44 1012.36 1012.17 1011.78 1011.40 1010.87 1011.18 1011.19 1011.46 1011.61 1011.73 1011.67 1011.65 1011.58 1011.22
1014.40 1013.30 1012.09 1010.45 1009.66 1009.51 1009.29 1009.38 1009.85 1009.74 1009.41 1009.16 1008.92 1008.99 1009.15 1009.48 1009.86 1010.20 1010.60 1011.04 1011.29 1011.53 1011.48 1011.74 1011.73 1011.43 1011.93 1011.98 1011.84 1011.68 1011.55 1011.59 1011.35 1010.72 1010.37 1010.27 1010.30 1010.33 1010.37 1010.56 1010.71 1010.63 1010.51
1014.75 1013.70 1012.61 1010.80 1009.76 1009.14 1009.23 1009.28 1009.68 1010.00 1009.79 1008.93 1009.03 1008.98 1009.40 1009.73 1010.24 1010.49 1010.71 1011.04 1011.29 1011.30 1011.27 1011.38 1011.30 1011.07 1011.36 1011.34 1011.36 1011.31 1011.42 1011.40 1011.52 1011.62 1010.79 1010.37 1010.20 1009.97 1009.63 1009.32 1009.13 1009.37 1009.49
1015.16 1014.32 1013.27 1012.11 1011.30 1010.35 1009.93 1010.54 1010.87 1011.12 1010.80 1010.53 1008.57 1009.41 1009.99 1010.60 1011.06 1011.53 1011.62 1011.57 1011.37 1011.37 1011.37 1011.31 1011.06 1011.03 1011.10 1010.91 1011.08 1011.07 1011.13 1010.96 1010.89 1011.09 1010.79 1010.34 1009.99 1009.62 1009.57 1009.23 1008.97 1008.68 1008.89
Wind_Speed
9 10 8 11 9 7 6 6 7 9 10 12 11 11 9 8 8 8 8 8 8 9 10 9 9 9 9 12 8 9 8 12 11 11 10 10 8 9 6 5 9 12 12
11 9 10 10 11 9 7 6 6 7 9 10 12 10 10 8 8 8 8 8 9 10 9 9 10 10 11 12 9 10 10 11 11 11 12 11 10 13 13 13 12 11 11
9 5 11 10 10 9 8 7 7 7 9 9 9 10 10 9 7 8 8 8 9 11 10 10 10 11 11 10 9 10 9 8 6 3 6 8 9 9 11 12 10 10 10
10 6 10 12 10 10 9 8 7 8 8 7 8 8 9 9 8 8 8 8 8 9 10 10 10 9 9 9 8 9 8 7 3 5 6 7 9 8 9 9 9 9 9
10 3 4 9 7 9 8 7 7 7 6 6 7 9 8 10 9 9 9 8 7 5 9 9 10 10 9 9 8 7 6 5 3 7 4 4 6 7 7 7 8 8 10
14 2 10 8 4 7 8 8 8 8 8 7 6 5 6 7 9 10 9 9 7 5 10 13 12 11 9 8 8 6 4 4 6 3 4 3 7 7 6 7 8 8 8
11 12 6 7 3 5 8 8 8 8 8 8 8 9 6 8 10 9 9 8 7 8 13 14 13 12 11 10 8 6 5 5 8 4 5 4 9 6 6 6 6 7 7
9 11 7 8 3 4 6 8 8 8 8 7 7 8 7 9 9 10 9 9 9 10 13 15 14 13 12 11 10 8 6 6 6 3 3 4 9 8 7 5 5 5 5
9 8 10 11 7 6 6 7 8 9 9 8 8 7 7 7 7 9 10 9 10 11 14 14 14 13 11 10 10 9 7 8 9 3 4 4 6 8 7 6 5 4 4
7 8 8 7 10 7 8 11 8 8 8 9 9 7 7 5 7 8 8 9 10 13 13 14 14 12 11 8 9 9 7 7 9 3 4 5 10 7 7 6 6 5 5
6 6 7 8 8 9 9 4 9 8 8 6 7 8 7 9 11 12 11 8 12 14 15 14 14 12 9 7 7 9 8 6 9 5 4 12 8 7 6 6 5 5 5
9 8 6 6 8 7 8 8 8 9 9 10 11 11 9 10 10 6 7 12 11 13 13 13 13 11 9 8 7 7 6 9 6 5 3 12 10 9 7 6 6 5 5
10 8 9 8 7 8 6 5 4 6 4 6 9 9 9 8 4 6 5 6 7 9 7 9 9 8 12 9 8 9 9 10 5 4 6 11 10 10 11 9 8 7 7
12 11 10 10 9 8 4 6 4 5 7 6 7 10 7 5 5 5 6 7 7 6 9 8 6 10 12 13 13 11 12 8 5 4 6 13 11 11 11 12 12 10 10
15 13 11 10 9 8 8 6 7 5 7 9 8 9 7 6 5 5 7 5 5 7 8 7 8 8 10 11 10 11 11 10 9 5 3 12 12 12 12 12 13 13 13
15 15 14 13 11 11 9 10 8 8 9 8 7 6 3 3 2 3 5 4 5 6 7 8 9 7 4 6 9 11 12 9 10 9 5 7 12 12 13 14 15 15 16
15 17 17 15 13 13 11 11 9 9 7 9 9 10 7 4 4 4 5 6 6 6 8 6 6 4 4 2 6 8 8 12 9 10 8 6 8 11 14 17 16 16 16
17 17 17 14 16 14 14 10 10 8 9 8 9 8 8 8 7 4 3 5 6 4 5 6 6 3 6 6 5 4 4 5 10 11 8 7 7 7 11 16 17 17 17
16 17 16 15 17 15 14 12 12 9 11 9 7 7 8 6 5 3 3 6 7 4 5 4 6 7 7 8 8 10 9 8 8 7 10 10 10 8 6 12 17 17 16
14 15 16 13 15 13 10 9 9 4 9 9 9 9 10 6 6 6 4 1 10 6 5 4 9 7 7 6 5 7 7 7 7 8 9 9 11 11 10 10 7 8 16
14 14 14 15 15 11 8 8 8 5 6 8 9 11 11 10 11 10 5 6 8 7 8 9 7 8 6 6 4 6 8 11 13 9 7 8 9 10 10 10 8 7 7
21 18 15 15 14 11 7 7 5 4 7 7 6 8 10 10 11 10 8 6 7 6 9 10 6 6 6 5 3 4 4 6 10 12 10 11 11 7 6 9 10 11 10
17 18 19 16 14 12 10 7 6 8 6 6 10 9 10 13 10 8 10 8 8 7 6 8 7 9 8 9 12 7 3 6 6 8 15 13 14 11 11 12 13 13 11
15 16 19 17 14 12 11 10 12 9 8 8 8 7 6 6 7 5 7 7 7 6 6 7 8 9 9 9 6 9 11 3 3 5 6 8 13 13 15 12 12 13 11
13 12 13 14 9 10 6 10 6 8 9 5 3 6 4 3 1 2 4 7 8 7 8 9 9 8 8 8 8 6 7 8 8 6 8 7 3 7 6 10 9 8 9
14 12 12 11 11 9 7 11 11 5 7 12 9 6 6 7 6 9 8 9 5 5 6 8 9 11 10 9 8 9 9 5 8 8 10 12 14 11 6 6 6 6 6
Wind_Direction
7 134 170 159 164 174 173 150 159 166 164 160 162 156 152 156 154 151 153 153 156 152 150 153 153 156 141 110 98 96 94 87 82 91 78 74 90 97 99 89 120 87 77
329 148 165 168 166 178 183 157 141 153 162 171 162 165 160 167 162 164 164 169 171 167 165 162 160 142 140 109 109 111 95 94 94 101 107 91 73 80 74 67 69 81 78
324 140 179 177 169 177 177 169 152 156 173 171 169 172 168 167 175 181 180 183 189 203 173 168 154 148 134 113 125 122 111 103 100 142 201 116 86 73 72 68 71 77 78
310 141 210 166 193 189 182 178 167 172 184 173 173 177 182 174 179 193 194 202 213 177 176 166 150 138 117 137 142 136 122 115 130 262 242 112 100 81 77 77 80 81 85
308 160 158 153 181 200 201 197 198 183 185 185 184 182 198 184 179 201 206 212 222 191 182 151 132 128 138 150 154 148 137 132 199 251 75 76 105 100 99 106 106 77 66
335 324 124 138 162 194 205 200 201 200 199 208 220 217 193 191 191 205 210 208 223 191 173 153 145 148 151 159 159 158 156 181 224 190 100 108 69 107 102 93 92 93 94
332 334 181 137 161 200 210 216 216 219 223 220 220 224 218 214 217 214 212 207 210 199 186 157 159 163 164 167 169 167 175 241 259 156 137 167 105 124 117 110 107 105 102
345 332 315 142 179 200 209 217 220 223 233 231 238 239 242 233 228 225 222 214 208 215 193 167 170 174 178 177 178 171 175 240 250 179 157 147 129 142 133 122 116 113 111
13 350 340 335 197 201 218 229 228 223 222 226 234 236 237 240 243 237 233 224 217 206 194 182 173 179 189 195 197 158 176 227 284 192 205 148 156 157 148 144 142 138 128
10 7 355 327 326 286 225 199 218 232 233 222 219 232 244 244 243 238 236 226 218 203 197 192 174 181 186 181 162 159 182 243 256 162 240 98 153 174 165 162 163 162 157
333 355 348 344 312 303 300 212 189 223 239 245 236 219 229 243 233 220 216 222 203 209 199 192 179 179 181 173 177 173 184 223 228 205 212 134 157 192 186 182 186 187 180
308 319 316 329 321 290 289 290 238 229 215 220 224 230 218 240 243 272 216 185 200 203 202 192 190 174 182 198 195 189 215 235 219 212 186 144 167 202 196 203 209 212 211
303 298 299 306 311 293 270 293 276 270 258 255 239 215 229 235 225 238 234 194 212 205 206 199 187 199 208 227 206 199 216 231 222 216 142 152 184 209 200 202 215 223 225
298 292 288 281 284 288 263 260 274 255 237 241 235 280 222 242 241 241 223 206 194 206 207 205 199 213 214 221 228 216 210 221 225 218 167 159 190 219 228 207 207 218 227
285 287 285 283 275 272 268 244 247 247 241 238 225 232 252 213 235 236 243 258 208 207 210 207 210 223 218 216 230 229 233 220 228 232 218 169 183 211 233 243 223 218 220
285 281 280 275 266 261 258 251 238 236 238 235 228 228 270 318 281 262 270 261 229 216 221 214 212 224 236 226 223 238 241 238 237 230 229 184 188 201 219 235 248 240 229
290 288 283 278 274 272 261 261 245 229 233 227 221 212 219 245 269 222 238 239 223 223 238 238 236 212 188 271 269 250 236 238 233 238 245 231 188 204 212 226 234 243 248
294 285 282 280 278 272 269 257 246 234 227 222 219 215 203 210 245 291 249 240 233 223 219 235 218 216 209 199 210 277 254 245 245 242 233 236 228 226 204 220 221 231 241
305 296 284 277 273 266 269 266 256 233 238 221 195 203 207 211 203 173 313 295 288 272 253 247 233 228 220 215 213 220 230 229 237 254 237 231 234 228 233 199 211 221 226
307 299 290 280 273 273 266 263 273 228 247 226 210 202 198 207 197 216 221 215 297 290 277 271 253 242 240 230 225 236 238 242 229 231 257 251 233 225 218 232 204 215 219
321 303 285 275 265 256 249 249 247 239 242 252 223 202 193 199 206 212 215 199 217 248 249 251 261 248 234 232 237 231 236 225 240 244 252 249 252 238 224 226 216 222 207
324 319 292 275 265 260 254 255 243 232 232 231 235 230 218 205 210 230 235 238 253 219 234 246 241 255 255 202 225 231 232 229 236 237 234 243 244 248 238 245 231 219 209
321 311 309 293 267 255 249 263 234 237 248 213 221 199 197 212 216 226 230 232 237 240 227 235 218 224 246 229 210 229 197 240 263 220 221 225 227 229 233 235 232 229 216
326 323 310 285 267 255 247 236 234 231 223 213 194 194 164 194 210 202 229 241 243 238 233 244 235 228 239 246 230 225 246 264 273 267 262 222 230 226 227 223 225 226 223
335 335 330 342 329 287 272 245 246 265 273 247 203 129 111 79 227 280 276 246 256 260 254 248 253 245 245 246 244 226 237 248 243 244 261 259 269 256 252 235 218 213 218
346 347 355 10 20 18 82 73 41 49 45 355 20 50 68 55 50 30 16 10 349 320 300 279 267 261 254 249 247 242 232 216 223 226 242 254 254 252 232 243 236 225 217